Location: Moscow
(38.8570°N, 84.2291°W)
Time: 09:42:55
(UTC+00:00)

UKube-1 - Pass Details

Date: 19 March 2026
Orbit: 527 x 530 km, 98.4° (Epoch: 19 April)

Event Time Altitude Azimuth Distance (km) Brightness Sun altitude
Rises 10:27:07 0° 23° (NNE) 2,671 ? -15.3°
Reaches altitude 10° 10:29:24 10° 33° (NNE) 1,776 ? -14.9°
Maximum altitude 10:32:52 33° 99° (E) 909 ? -14.2°
Drops below altitude 10° 10:36:19 10° 164° (SSE) 1,762 ? -13.5°
Sets 10:38:33 0° 174° (S) 2,646 ? -13.1°
